Location: Cz?stochówka
(50.8142°N, 19.0915°E)
Time: 19:46:30
(UTC+00:00)

IRS-1D - Pass Details

Date: 13 January 2026
Orbit: 737 x 810 km, 98.8° (Epoch: 13 February)

Event Time Altitude Azimuth Distance (km) Brightness Sun altitude
Rises 04:48:37 0° 10° (N) 3,323 6.8 -17.0°
Reaches altitude 10° 04:51:03 10° 4° (N) 2,395 6.0 -16.7°
Maximum altitude 04:56:01 43° 295° (WNW) 1,132 3.9 -15.9°
Drops below altitude 10° 05:01:00 10° 226° (SW) 2,394 5.8 -15.1°
Sets 05:03:25 0° 219° (SW) 3,320 6.6 -14.8°
